Location: Centerville
(32.8776°N, 96.6203°W)
Time: 00:34:57
(UTC+00:00)

Lacrosse 5 rocket - Pass Details

Date: 17 June 2021
Orbit: 460 x 634 km, 57.0° (Epoch: 01 August)

Event Time Altitude Azimuth Distance (km) Brightness Sun altitude
Rises 03:06:31 0° 207° (SSW) 2,595 4.6 -16.1°
Reaches altitude 10° 03:08:46 10° 203° (SSW) 1,686 3.6 -16.5°
Maximum altitude 03:12:27 53° 126° (SE) 593 1.1 -17.0°
Drops below altitude 10° 03:16:01 10° 48° (NE) 1,628 3.7 -17.6°
Sets 03:18:09 0° 44° (NE) 2,494 4.7 -17.9°
